User: anonymous   Login
Location: Newark
(43.0000°N, 1.6781°W)
Time: 06:24:16
(UTC+00:00)
Language:

TLV R/B - Orbit

View from above orbital plane
View from above orbital plane
View from above satellite
View from above satellite

Ground track
Ground track

The orbit data is extracted from the following two-line orbital elements,

1 58501U 23188B   24197.33221180  .00012375  00000-0  52788-3 0  9995
2 58501  46.9156  58.3452 0151043  49.2197 312.1703 15.13357219 33881
Epoch (UTC): 15 July 2024 07:58:23
Eccentricity: 0.0151043
inclination: 46.9156°
perigee height: 421 km
apogee height: 630 km
right ascension of ascending node: 58.3452°
argument of perigee: 49.2197°
revolutions per day: 15.13357219
mean anomaly at epoch: 312.1703°
orbit number at epoch: 3388

The dashed part of the orbit path shows where the satellite is in the earth's shadow,  

DLR